Regional Weather Roundup
Issued by NWS

Home | Current Version | Previous Version | Text Only | Print | Product List | Glossary On
Versions: 1 2 3 4 5 6 7 8 9 10 11 12 13 14 15 16 17 18 19 20 21 22 23 24 25 26 27 28 29 30 31 32 33 34 35 36 37 38 39 40 41 42 43 44 45 46 47 48 49 50
000
ASUS43 KMPX 011310
RWRMN
WEATHER ROUNDUP FOR MINNESOTA
NATIONAL WEATHER SERVICE TWIN CITIES/CHANHASSEN MN
800 AM CDT TUE SEP 01 2015


NOTE: "FAIR" INDICATES FEW OR NO CLOUDS BELOW 12,000 FEET WITH NO
SIGNIFICANT WEATHER AND/OR OBSTRUCTIONS TO VISIBILITY. N/A MEANS
CURRENT SKY AND/OR WEATHER CONDITIONS ARE NOT AVAILABLE.

MNZ060>063-068>070-011400-
   Twin Cities Metro

CITY           SKY/WX    TMP DP  RH WIND       PRES   REMARKS
TWIN CITIES    PTSUNNY   71  66  84 SE5       29.93R
ST PAUL        CLOUDY    70  67  90 SE6       29.93S FOG
CRYSTAL        MOSUNNY   74  67  78 S3        29.91R
BLAINE         PTSUNNY   73  72  94 CALM      29.92R
LAKEVILLE      SUNNY     66  66 100 CALM      29.94S FOG
EDEN PRAIRIE   PTSUNNY   72  67  84 S6        29.92R
SOUTH ST PAUL  MOSUNNY   70  67  91 SE3       29.93S FOG
LAKE ELMO      FAIR      70  68  94 S5        29.94S FOG
$$
MNZ001>005-007-008-013>017-022>024-027-028-011400-
   Northwest Minnesota

CITY           SKY/WX    TMP DP  RH WIND       PRES   REMARKS
BEMIDJI        MOSUNNY   53  53 100 CALM      29.93R FOG
HALLOCK        SUNNY     54  52  94 S6        29.85S
ROSEAU         SUNNY     55  50  82 S5        29.87S
WARROAD        MOSUNNY   55  52  88 S6        29.88S
THIEF RVR FALL MOSUNNY  N/A N/A N/A CALM      29.89R
CROOKSTON      MOSUNNY   55  55 100 SE7       29.89S
FOSSTON        SUNNY     54  54 100 SE5       29.92S
DETROIT LAKES  MOSUNNY   59  59 100 CALM      29.93S
MOORHEAD       FOG       57  57 100 CALM      29.90S VSB 1/4
PARK RAPIDS    PTSUNNY   57  56  96 CALM      29.93S
MAHNOMEN       FAIR      58  56  94 SE5       29.91R
$$
MNZ006-009>011-018-025>026-011400-
   North Central Minnesota

CITY           SKY/WX    TMP DP  RH WIND       PRES   REMARKS
BAUDETTE       MOSUNNY   56  52  86 S5        29.88R
FLAG ISLAND    SUNNY     61  54  77 SW9       29.85S
INTL FALLS     PTSUNNY   55  54  96 CALM      29.90S FOG
WASKISH        MOSUNNY   55  55 100 CALM      29.91R
BIG FORK       PTSUNNY   55  55 100 CALM      29.93R FOG
LONGVILLE      PTSUNNY   61  61 100 CALM      29.93R FOG
GRAND RAPIDS     N/A     63  61  94 CALM      29.93R
CRANE LAKE     CLOUDY    55  54  94 CALM      29.92R
ORR            CLOUDY    59  57  94 CALM      29.89S
COOK           CLOUDY    57  57 100 CALM      29.92S
WALKER         FAIR      56  55  99 CALM      29.93R
$$
MNZ012-019>021-037-011400-
   Northeast Minnesota

CITY           SKY/WX    TMP DP  RH WIND       PRES   REMARKS
DULUTH         MOSUNNY   70  67  90 W5        29.92R FOG
ELY            FOG       64  63  94 CALM      29.92R VSB 3/4
HIBBING        CLOUDY    60  59  96 CALM      29.92S FOG
EVELETH        FOG       61  61 100 CALM      29.93S VSB 1/4
DULUTH HARBOR  PTSUNNY   72  70  94 SW5       29.90S
TWO HARBORS    PTSUNNY   72  66  83 CALM      29.89S HAZE
SILVER BAY     PTSUNNY   68  66  94 CALM      29.89R FOG
GRAND MARAIS     N/A     59  58  96 CALM      29.87S
G MARAIS ARPRT   N/A     66  64  94 CALM      29.93S FOG
$$
MNZ029>031-032-039>041-046>048-054>057-064-011400-
   West Central Minnesota

CITY           SKY/WX    TMP DP  RH WIND       PRES   REMARKS
FERGUS FALLS   PTSUNNY   64  64 100 SE3       29.91R
WHEATON        PTSUNNY   59  59 100 CALM      29.92S FOG
MORRIS         CLOUDY    70  66  88 E5        29.90S
ALEXANDRIA     CLOUDY    67  64  90 E6        29.94R
ELBOW LAKE     FAIR      68  65  92 E6        29.90S
WADENA         PTSUNNY   61  61 100 CALM      29.93S FOG
GLENWOOD       CLOUDY    66  64  94 NE5       29.93S
APPLETON       CLOUDY    70  66  88 E5        29.90R FOG
BENSON         CLOUDY    70  64  83 CALM      29.91R
ORTONVILLE     CLOUDY    68  64  88 NE5       29.90S
MADISON        CLOUDY    66  64  94 CALM      29.91R FOG
WILLMAR        FAIR      70  68  94 CALM        N/A  FOG
$$
MNZ033>034-036-042>043-049>051-058-059-011400-
   Central Minnesota

CITY           SKY/WX    TMP DP  RH WIND       PRES   REMARKS
ST CLOUD       CLOUDY    69  67  93 CALM      29.92R FOG
SAUK CENTRE    FAIR      67  65  96 CALM      29.93S
PAYNESVILLE    CLOUDY    68  68  99 CALM      29.92F FOG
AITKIN         PTSUNNY   66  61  82 CALM      29.92R HAZE
PINE RIVER     CLOUDY    61  61 100 CALM      29.96R FOG
BRAINERD       CLOUDY    65  65 100 SE3       29.92F FOG
STAPLES        CLOUDY    63  61  94 CALM      29.93S FOG
LONG PRAIRIE   FAIR      64  63  94 CALM      29.93S
LITTLE FALLS   CLOUDY    66  64  94 CALM      29.93R FOG
LITCHFIELD     CLOUDY    70  70 100 SE5       29.92S FOG
BUFFALO        CLOUDY    69  65  88 CALM      29.93F
MAPLE LAKE     CLOUDY    70  68  94 CALM      29.93S FOG
$$
MNZ037-044-045-052-053-011400-
   East Central Minnesota

CITY           SKY/WX    TMP DP  RH WIND       PRES   REMARKS
PRINCETON      CLOUDY    70  68  94 CALM      29.93R FOG
MORA           CLOUDY    68  66  94 CALM      29.94R FOG
CAMBRIDGE      PTSUNNY   73  63  68 S5          N/A
RUSH CITY      MOSUNNY   70  68  94 S3        29.93R
MOOSE LAKE     PTSUNNY   68  68 100 CALM      29.90S FOG
HINCKLEY       FAIR      70  70 100 CALM      29.93R FOG
CLOQUET        MOSUNNY   70  66  88 CALM      29.92S FOG
MCGREGOR       PTSUNNY   66  64  94 CALM      29.93S
$$
MNZ071>073-080-081-089-090-097-098-011400-
   Southwest Minnesota

CITY           SKY/WX    TMP DP  RH WIND       PRES   REMARKS
MONTEVIDEO     CLOUDY    68  66  94 E3        29.91F FOG
GRANITE FALLS  CLOUDY    67  67  98 CALM      29.91S
CANBY          CLOUDY    67  65  93 CALM      29.92S FOG
MARSHALL       CLOUDY    70  64  83 CALM      29.92S
REDWOOD FALLS  CLOUDY    68  66  93 E6        29.90F FOG
OLIVIA         CLOUDY    68  64  88 CALM      29.91S FOG
PIPESTONE      CLOUDY    66  64  94 SE7       29.90F FOG
WINDOM         PTSUNNY   66  64  94 CALM      29.93S
WORTHINGTON    PTSUNNY   66  63  88 S5        29.93S
JACKSON        MOSUNNY   68  66  94 S3        29.95R FOG
TRACY          CLOUDY    68  67  96 CALM      29.92R FOG
SLAYTON        CLOUDY    65  65 100 CALM      29.93S FOG
$$
MNZ065>067-074>077-082>085-091>093-011400-
   South Central Minnesota

CITY           SKY/WX    TMP DP  RH WIND       PRES   REMARKS
MANKATO        MOSUNNY   68  64  88 SE7       29.93S
NEW ULM        MOSUNNY   66  66 100 S3        29.92S
ST JAMES       PTSUNNY   68  66  94 SE3       29.93S
FAIRMONT       MOSUNNY   66  61  82 S7        29.93S
GLENCOE        PTSUNNY   69  68  96 SE5       29.92S
FARIBAULT      SUNNY     66  66 100 CALM      29.95S FOG
OWATONNA       SUNNY     72  68  88 SE8       29.95S FOG
WASECA         SUNNY     68  66  94 CALM      29.96R FOG
ALBERT LEA     SUNNY     70  68  94 CALM      29.96R FOG
$$
MNZ078>079-086>088-094>096-011400-
   Southeast Minnesota

CITY           SKY/WX    TMP DP  RH WIND       PRES   REMARKS
ROCHESTER      FOG       67  67 100 S6        29.98R VSB 1/4
RED WING       PTSUNNY   72  70  94 CALM      29.94R FOG
STANTON        PTSUNNY   68  65  92 CALM      29.93S FOG
DODGE CENTER   FOG       66  66 100 S5        29.97R VSB 1
WINONA         PTSUNNY   70  70 100 SE5       29.96F FOG
AUSTIN         MOSUNNY   70  68  94 S3        29.97R FOG
PRESTON          N/A     68  66  96 S5        29.99S FOG
$$
ABBREVIATIONS USED IN REMARKS
   TC - TEMPERATURES IN CELSIUS
  WCI - WIND CHILL INDEX
   HX - HEAT INDEX
  VSB - VISIBILITY
$$



USA.gov is the U.S. government's official web portal to all federal, state and local government web resources and services.